Regional Weather Roundup
Issued by NWS

Home | Current Version | Previous Version | Graphics & Text | Print | Product List | Glossary On
Versions: 1 2 3 4 5 6 7 8 9 10 11 12 13 14 15 16 17 18 19 20 21 22 23 24 25 26 27 28 29 30 31 32 33 34 35 36 37 38 39 40 41 42 43 44 45 46 47 48 49 50
000
ASUS43 KOAX 221510
RWRNE

WEATHER ROUNDUP FOR NEBRASKA
NATIONAL WEATHER SERVICE OMAHA NE
900 AM CST MON DEC 22 2014

NOTES: SATELLITE DATA IS BEING USED TO AUGMENT CLOUD COVER ABOVE
       12000 FEET.
       "FAIR" INDICATES FEW OR NO CLOUDS BELOW 12,000 FEET WITH NO
       SIGNIFICANT WEATHER AND/OR OBSTRUCTIONS TO VISIBILITY.

  * THESE STATIONS DO NOT REPORT WEATHER SUCH AS RAIN...SNOW OR FOG.

NEZ001>004-019>022-054>056-221600-
NEBRASKA PANHANDLE

CITY           SKY/WX    TMP DP  RH WIND       PRES   REMARKS
SCOTTSBLUFF    MOCLDY    32  26  78 NW9       29.69S WCI  24
ALLIANCE       PTCLDY    31  24  75 NW16      29.63F WCI  20
CHADRON        MOCLDY    34  27  75 W18G28    29.65R WCI  23
KIMBALL        CLEAR     28  23  83 W13       29.68S WCI  17
SIDNEY         PTCLDY    31  24  75 NW13      29.67F WCI  21
$$

NEZ057>060-069>072-079>082-221600-
SOUTHWEST NEBRASKA

CITY           SKY/WX    TMP DP  RH WIND       PRES   REMARKS
NORTH PLATTE   MOCLDY    36  32  85 W8        29.59S WCI  30
IMPERIAL       CLOUDY    37  30  75 W14       29.65S WCI  28
LEXINGTON      CLOUDY    37  34  87 NW14      29.57S WCI  29
MCCOOK         CLOUDY    38  31  76 W13       29.63R WCI  30
OGALLALA       MOCLDY    36  29  77 W13G18    29.64S WCI  27
$$

NEZ005>010-023>029-035>040-094-221600-
NORTH CENTRAL NEBRASKA

CITY           SKY/WX    TMP DP  RH WIND       PRES   REMARKS
VALENTINE      CLOUDY    38  31  76 W9        29.52S WCI  31
AINSWORTH      CLOUDY    37  32  83 W9        29.50F WCI  30
BROKEN BOW     CLOUDY    39  33  79 W15       29.53S WCI  31
O`NEILL        CLOUDY    39  37  93 NW15G21   29.48S WCI  30
THEDFORD       PTCLDY    37  32  84 W14G20    29.54S WCI  28
$$

NEZ041-046>049-061>064-073>077-083>087-221600-
SOUTH CENTRAL NEBRASKA

CITY           SKY/WX    TMP DP  RH WIND       PRES   REMARKS
GRAND ISLAND   CLOUDY    40  36  86 NW13      29.53S WCI  32
AURORA         CLOUDY    40  38  94 NW13      29.51S WCI  33
HASTINGS       CLOUDY    39  35  86 NW12      29.53R WCI  32
HEBRON         CLOUDY    41  37  85 NW6       29.52R
HOLDREGE       MOCLDY    37  33  87 NW12      29.56S WCI  29
KEARNEY *      CLOUDY    39  34  81 W10       29.55S WCI  32
YORK           CLOUDY    39  39 100 NW10      29.50S WCI  32
$$

NEZ011>018-030>034-042>045-221600-
NORTHEAST NEBRASKA

CITY           SKY/WX    TMP DP  RH WIND       PRES   REMARKS
NORFOLK        CLOUDY    40  38  93 W12       29.47S WCI  33
ALBION         CLOUDY    40  37  90 NW12      29.49S FOG     WCI  33
BLAIR          LGT RAIN  42  40  93 SE13      29.50F
COLUMBUS *     PTCLDY    39  36  87 W6        29.49F WCI  35
FREMONT        DRIZZLE   43  42  97 SE8       29.49F
TEKAMAH        LGT RAIN  43  41  93 SE15      29.50F
WAYNE          CLOUDY    41  39  93 SW5       29.47F FOG
$$

NEZ050>053-065>068-078-088>093-221600-
SOUTHEAST NEBRASKA

CITY           SKY/WX    TMP DP  RH WIND       PRES   REMARKS
LINCOLN        CLOUDY    43  42  97 S7        29.50F FOG
OMAHA EPPLEY   LGT RAIN  42  40  92 SE13      29.53F FOG
BEATRICE       DRIZZLE   42  42  99 S8        29.50S
FALLS CITY     LGT RAIN  42 N/A N/A SE7       29.54F
NEBRASKA CITY  RAIN      41  41 100 S10       29.53F
PLATTSMOUTH    LGT RAIN  41  39  95 SE10      29.52F
$$

NEZ044-045-051>053-067-221600-
OMAHA AREA

CITY           SKY/WX    TMP DP  RH WIND       PRES   REMARKS
OMAHA EPPLEY   LGT RAIN  42  40  92 SE13      29.53F FOG
BLAIR          LGT RAIN  42  40  93 SE13      29.50F
FREMONT        DRIZZLE   43  42  97 SE8       29.49F
MILLARD        LGT RAIN  42  40  94 SE9       29.51F
OFFUTT AFB     LGT RAIN  42  40  96 SE12      29.52F FOG
PLATTSMOUTH    LGT RAIN  41  39  95 SE10      29.52F
WAHOO          RAIN      42  40  93 SE8       29.50S
$$



USA.gov is the U.S. government's official web portal to all federal, state and local government web resources and services.